Wind_Speed
7 8 8 7 7 6 6 6 6 7 7 7 8 8 9 9 9 9 8 8 8 7 7 7 7 6 7 7 7 6 5 5 6 4 3 3 1 1 2 4 3 3 3 3 1 2 2 2 3 4 6 7 9 9 7 5 5 5 6 7 8 9 9
7 7 8 7 7 7 7 6 6 6 7 7 8 9 9 10 10 10 10 9 9 8 8 8 8 8 7 7 7 8 8 7 7 5 4 4 4 3 2 2 2 1 2 3 3 0 2 2 2 2 3 6 7 7 6 6 8 8 9 9 10 10 10
9 7 7 8 8 7 7 7 6 6 6 7 8 9 10 10 10 10 10 10 10 9 9 9 9 8 8 8 8 8 8 8 8 8 7 5 5 4 4 4 4 4 2 1 2 3 2 3 4 3 4 5 5 6 8 10 11 11 11 12 12 11 11
11 9 8 8 8 8 7 7 7 6 7 7 8 9 9 9 9 9 10 10 10 10 9 9 8 8 8 8 8 8 8 8 7 8 7 6 5 4 5 4 5 5 4 3 3 4 3 3 4 5 6 7 8 9 9 9 9 11 14 15 14 13 12
12 11 9 9 9 9 8 8 7 7 7 7 7 8 8 8 8 8 9 9 9 9 9 8 8 8 8 7 7 7 7 7 7 6 6 6 5 4 4 4 4 4 4 4 3 3 3 3 4 5 6 8 9 10 10 10 11 13 15 15 14 13 12
13 12 10 9 9 9 8 8 8 7 7 8 7 8 8 7 7 7 8 8 9 9 9 8 8 8 8 8 8 8 7 7 7 6 6 6 5 4 4 3 3 3 3 4 4 3 3 4 5 5 6 7 8 10 12 12 12 12 12 12 12 11 10
14 13 11 10 9 9 8 9 8 7 7 8 8 8 9 8 6 7 7 8 8 9 9 8 8 7 7 7 7 7 7 7 7 7 7 6 6 5 4 3 3 3 4 4 4 4 4 4 5 6 7 7 8 10 12 11 11 10 9 9 8 9 9
15 14 13 11 10 9 9 9 8 7 6 7 7 8 9 9 7 7 8 8 8 8 8 8 7 7 6 6 6 6 6 6 6 5 5 5 5 4 4 3 3 3 4 4 5 5 5 5 5 6 7 7 6 7 8 9 10 9 8 8 8 8 8
14 14 14 12 11 11 10 10 10 9 7 7 8 9 10 10 10 9 8 8 8 8 7 7 6 6 6 5 5 5 5 5 5 4 4 4 4 3 3 3 3 3 3 4 5 5 5 5 6 6 6 6 6 5 5 6 7 7 7 7 7 6 5
16 15 14 14 14 13 12 11 11 11 10 9 10 11 12 11 11 11 10 9 9 8 8 7 6 6 6 6 5 5 5 4 4 4 3 3 3 2 3 3 3 3 3 4 4 5 5 5 5 6 6 7 7 6 5 5 5 6 8 8 8 7 5
21 19 16 15 16 16 15 13 12 13 13 12 12 13 13 13 13 12 11 11 10 9 8 8 7 7 6 6 6 5 5 4 4 3 3 3 2 2 2 2 3 2 3 4 4 4 5 5 5 6 6 7 7 7 7 6 6 6 8 8 9 8 7
22 19 16 15 16 17 18 16 14 14 15 15 15 15 15 15 14 14 13 12 11 10 9 8 7 7 7 6 6 6 5 5 4 3 3 2 2 2 2 2 2 2 3 4 4 4 4 4 5 6 6 7 8 8 9 9 7 7 7 8 9 10 10
20 19 17 15 16 17 19 18 17 16 15 16 17 17 16 16 16 16 15 14 13 12 10 9 8 7 6 6 6 6 6 6 5 4 3 2 2 1 1 2 2 2 3 4 4 4 5 5 5 6 6 7 8 8 10 10 9 9 10 11 11 11 11
18 18 18 17 18 18 18 18 19 18 16 17 18 18 18 17 18 17 16 16 15 14 12 11 9 8 7 7 7 6 6 6 6 5 4 3 3 1 0 1 2 2 3 4 4 5 5 5 6 6 6 6 8 8 9 11 11 11 12 11 11 11 11
18 18 18 19 19 19 18 17 18 18 18 18 19 20 19 19 19 18 18 17 16 15 14 12 11 10 9 9 8 7 7 6 6 5 4 3 3 2 1 1 1 1 2 4 5 6 6 5 7 7 6 7 8 8 9 11 12 12 12 12 11 12 12
17 18 19 20 21 20 19 18 18 19 19 19 19 20 20 20 20 19 19 18 18 17 15 14 13 11 11 11 9 9 8 7 6 5 4 3 2 2 1 2 1 1 2 3 4 6 6 6 7 7 8 8 9 10 10 11 12 13 13 13 13 13 12
14 16 17 18 19 18 16 16 17 18 18 17 19 21 21 22 22 21 20 19 19 18 17 16 14 13 13 12 11 10 9 8 7 6 5 4 3 2 2 2 2 2 3 3 4 5 5 6 7 8 9 9 9 10 10 11 12 13 14 14 14 14 14
13 16 16 16 15 15 15 16 16 17 18 18 20 22 23 23 24 23 22 22 21 19 19 18 16 15 14 13 12 11 10 9 8 7 5 4 3 3 3 3 3 3 3 4 4 5 5 6 8 9 10 10 11 11 11 12 13 14 15 16 16 15 15
12 15 16 16 16 17 17 18 18 20 21 21 21 22 24 25 25 25 24 23 22 21 20 19 18 17 15 14 13 11 10 9 8 7 5 4 4 4 4 4 4 4 4 5 5 6 7 8 9 9 10 11 12 12 12 13 14 15 16 17 17 16 15
12 14 15 15 17 17 18 18 20 20 20 20 21 23 24 24 25 25 24 23 23 22 21 20 18 17 16 15 13 12 11 9 8 7 6 5 5 4 4 4 4 4 5 5 5 6 7 8 9 10 11 11 11 12 13 14 15 16 17 18 17 16 16
9 11 13 14 16 17 18 19 20 20 19 20 22 22 23 23 23 24 25 25 24 22 22 21 19 18 17 15 14 12 11 9 8 7 6 6 5 5 5 5 4 4 5 5 7 7 8 9 10 11 11 11 12 13 14 14 15 16 17 17 17 16 16
7 8 10 12 14 16 17 18 19 19 19 19 20 21 22 23 23 23 25 25 24 23 22 20 20 19 17 15 13 12 10 9 8 7 6 5 5 5 4 4 5 5 5 6 7 8 8 10 11 12 12 12 13 14 15 15 15 16 16 17 17 17 16
7 8 9 10 11 13 15 17 18 19 19 19 19 19 19 21 22 21 21 23 24 23 21 20 21 20 18 15 12 10 9 8 7 6 6 5 5 4 4 5 6 8 8 8 7 7 9 9 10 12 13 14 14 15 15 16 16 17 17 17 17 17 16
8 8 9 10 10 11 13 14 16 17 17 18 16 16 21 24 25 24 22 23 23 21 20 22 23 21 17 14 11 9 8 7 7 6 6 5 4 4 5 6 6 8 10 8 8 10 12 12 11 12 14 15 16 17 18 18 18 17 18 18 18 18 17
9 9 9 10 10 10 11 12 14 14 14 15 16 18 22 25 26 26 24 21 18 16 17 21 20 16 13 11 9 8 7 7 7 6 6 5 5 5 6 7 8 8 9 10 11 12 13 12 12 14 15 16 18 20 21 22 22 20 20 19 20 20 19
10 10 10 10 9 9 9 10 11 11 12 15 17 18 21 23 24 23 22 21 19 17 16 17 15 12 10 8 7 7 7 7 6 6 6 5 6 7 8 8 9 9 9 11 12 12 11 12 13 15 17 18 19 19 20 22 24 25 25 23 23 22 21
10 11 11 11 10 9 9 9 10 11 12 14 17 18 19 21 20 20 21 22 21 18 17 15 14 11 9 7 7 7 7 6 5 5 6 6 7 8 9 9 10 10 11 11 12 12 12 13 15 16 16 17 18 18 19 20 21 24 27 27 27 26 24
11 11 12 11 10 9 9 9 10 11 12 13 16 17 17 19 19 19 20 20 18 15 14 14 13 11 9 8 7 7 6 6 5 6 7 8 9 9 10 10 11 12 12 12 12 13 15 16 16 17 17 18 18 19 19 20 20 22 24 26 27 27 25
11 11 12 11 11 10 9 10 10 11 12 13 15 16 17 18 19 18 17 16 15 14 14 14 12 10 9 9 7 5 5 5 6 7 8 8 10 10 11 11 12 12 13 13 14 16 17 18 18 18 19 19 19 19 19 19 21 23 25 27 28 28 28
12 12 11 11 11 11 10 11 12 13 14 14 16 16 16 17 17 16 16 15 14 12 13 13 11 9 9 8 6 4 4 6 7 8 8 9 10 11 12 13 13 14 15 16 16 17 18 19 18 19 20 20 20 21 21 20 21 23 25 27 28 30 33
13 12 12 12 11 11 11 12 13 14 16 16 16 17 17 17 17 17 18 18 14 11 11 11 9 8 8 7 4 4 5 7 8 9 9 10 11 12 13 14 16 17 18 18 18 18 19 19 18 18 20 22 23 24 23 22 22 24 25 26 27 28 30
13 12 12 12 12 12 12 13 14 16 17 17 17 17 16 17 18 18 18 18 16 12 10 9 7 7 6 5 4 4 6 8 8 9 11 11 12 13 13 15 17 19 19 18 17 17 18 17 17 18 22 25 26 26 25 24 25 25 25 26 26 26 28
13 13 13 13 13 13 13 14 15 17 18 17 17 17 16 19 21 18 16 16 14 11 10 8 6 5 4 4 4 5 7 8 10 11 12 12 13 14 15 15 17 18 17 15 15 16 17 17 18 20 23 26 26 26 25 25 25 25 26 27 27 27 27
14 13 13 14 14 14 14 15 16 17 16 15 15 16 18 22 22 18 16 15 12 10 10 8 5 4 3 3 4 5 6 8 10 11 12 14 15 15 16 17 16 18 18 16 17 18 20 21 23 24 26 27 28 28 28 28 27 27 27 28 28 28 27
14 13 14 14 15 16 15 15 16 17 15 15 17 19 21 23 22 19 16 13 10 9 10 7 4 2 2 3 5 6 6 7 9 10 12 14 15 16 18 18 18 20 21 21 22 24 25 26 28 29 29 30 31 31 31 30 29 28 27 27 27 26 26
14 13 14 15 16 17 15 12 12 13 13 15 19 22 23 22 20 16 14 10 8 8 8 6 4 2 1 3 4 5 6 7 9 9 11 14 16 17 18 19 21 24 26 26 27 28 27 28 28 28 28 29 30 30 30 30 29 28 27 27 27 26 26
15 15 16 17 16 14 12 10 10 12 15 19 22 23 22 20 17 13 11 10 9 9 8 5 2 1 2 3 4 5 6 9 11 13 13 14 16 16 18 20 24 27 28 29 28 27 26 26 26 25 25 25 26 27 28 27 27 26 26 26 27 26 26
Wind_Direction
155 136 135 131 126 121 109 101 99 95 91 88 89 91 93 93 92 89 86 85 85 85 88 88 87 86 83 81 76 70 68 62 57 65 87 75 53 168 204 231 220 203 198 188 210 241 253 254 237 265 302 312 311 301 287 275 270 261 257 253 248 248 245
160 145 146 143 136 132 124 115 110 105 96 90 92 97 99 96 92 89 86 84 82 80 84 87 87 89 88 84 80 78 79 79 72 68 68 55 42 42 27 327 302 257 181 140 106 313 259 265 261 249 281 303 302 285 272 278 275 265 261 255 252 255 251
166 162 157 150 150 148 140 134 128 123 114 104 103 105 105 100 95 91 88 85 84 82 83 86 89 89 89 88 85 83 82 82 79 75 71 61 49 34 20 5 353 347 322 175 67 15 338 288 288 282 282 287 280 267 265 269 270 267 264 257 252 253 250
173 175 172 165 165 164 158 152 146 141 133 126 122 118 114 108 101 95 92 89 87 85 84 84 86 88 89 90 88 86 84 81 80 79 73 67 61 46 32 21 11 10 357 346 7 1 341 316 307 298 298 296 288 284 277 269 268 269 267 261 253 251 250
180 185 187 182 179 176 172 165 157 155 151 147 143 136 132 123 113 106 100 96 92 90 88 85 84 85 87 89 88 86 84 82 80 79 74 67 60 48 38 26 13 13 9 5 5 351 327 315 306 292 295 301 296 292 291 284 275 268 266 261 252 247 245
187 192 196 193 191 187 182 176 170 170 168 166 163 156 151 142 128 119 110 104 102 99 96 93 89 86 86 87 88 87 83 82 79 78 76 69 62 51 35 22 10 1 0 359 347 333 324 303 291 288 295 301 297 294 294 288 279 273 266 259 254 251 247
191 193 199 199 197 196 189 184 183 185 182 179 178 170 163 157 144 132 122 113 111 109 105 101 95 90 88 87 87 88 84 81 79 77 76 70 62 54 36 14 359 350 341 337 326 314 310 302 296 300 303 300 293 292 295 294 290 285 275 269 267 264 260
197 195 199 202 200 201 197 190 189 192 192 188 184 176 170 166 155 143 134 124 119 116 110 107 102 95 91 88 85 84 83 81 81 77 75 70 59 50 38 15 348 339 330 324 318 308 305 303 299 301 301 298 293 290 294 301 300 294 290 289 282 272 267
205 200 200 201 201 202 201 199 198 195 194 191 185 178 175 172 164 155 147 139 132 127 120 115 111 105 100 95 90 87 83 81 81 77 72 68 60 46 28 4 333 327 326 320 314 309 307 300 294 291 287 287 293 295 294 298 299 298 302 304 294 284 281
216 211 204 202 205 208 209 206 203 197 192 190 185 180 179 176 171 165 158 153 146 140 137 131 127 123 117 111 106 101 97 94 88 78 68 61 55 41 22 358 332 323 324 318 310 308 305 297 290 285 278 276 280 286 292 293 288 289 297 304 300 292 287
222 220 214 208 210 215 217 212 205 199 193 189 184 181 181 179 175 173 167 162 158 153 150 145 142 139 132 127 123 118 113 112 108 94 80 70 57 35 17 356 332 317 317 311 299 294 292 288 284 278 274 272 270 272 283 289 285 278 281 289 292 293 299
224 223 221 215 211 214 220 219 213 206 196 190 186 182 183 182 179 178 174 170 166 163 160 156 153 149 144 140 134 128 128 130 129 120 104 89 69 38 12 351 333 322 311 297 284 283 284 280 281 279 274 272 270 271 277 282 282 275 277 285 289 293 299
225 225 226 224 219 217 220 220 221 217 203 194 189 185 185 186 183 182 179 176 173 170 168 164 162 159 153 148 143 139 139 141 142 138 136 133 120 82 345 323 314 314 309 294 281 279 276 274 279 280 277 275 272 272 274 276 278 278 282 288 288 286 288
226 226 226 228 229 228 224 219 220 220 210 202 194 188 189 189 187 186 183 181 179 175 174 171 169 168 163 155 149 148 149 151 151 148 151 157 156 157 237 299 292 291 296 293 288 281 273 271 273 269 267 271 272 271 272 275 278 282 284 286 287 287 289
232 231 229 229 231 233 230 223 219 216 212 207 200 194 192 191 190 189 186 184 183 180 178 176 174 173 170 165 160 160 161 160 159 156 158 164 167 174 201 265 284 277 278 285 286 288 286 283 282 277 273 276 278 275 274 277 282 287 288 288 289 289 289
240 238 234 233 234 232 230 226 221 218 214 210 205 200 196 192 191 191 189 186 183 181 180 177 177 177 174 172 170 169 169 169 168 167 170 176 190 209 230 259 269 264 274 283 287 291 293 290 291 292 286 280 279 276 275 278 280 283 287 290 291 291 290
258 255 249 245 241 235 231 227 222 221 218 210 206 203 197 194 193 192 191 188 184 181 180 178 178 179 178 177 176 172 172 173 173 175 180 190 213 238 247 254 258 264 273 283 289 289 288 289 294 297 292 286 279 276 274 273 273 277 282 286 288 290 291
273 270 266 262 255 247 240 235 227 224 223 217 210 205 198 194 193 192 190 188 185 183 182 181 180 179 178 178 176 175 174 175 176 177 185 200 220 233 237 242 249 262 272 279 284 287 287 289 292 291 290 289 286 284 281 277 276 276 278 282 284 286 287
277 269 263 259 256 251 245 239 231 230 229 222 212 204 200 196 193 191 190 187 186 186 184 183 181 180 179 177 176 175 174 175 178 180 188 202 212 220 227 236 244 252 263 271 274 279 281 281 282 281 282 283 284 285 284 282 281 280 278 279 281 283 282
287 276 268 262 258 255 249 244 238 234 230 224 216 209 205 201 194 189 187 186 187 187 185 183 181 180 179 178 177 175 174 175 179 181 185 191 196 205 216 225 237 245 254 264 269 275 279 279 278 275 274 274 275 277 279 278 279 281 281 281 281 281 281
294 285 279 273 267 260 255 251 246 240 232 226 222 218 212 204 196 190 185 184 185 185 183 182 180 179 180 179 177 174 173 176 178 179 180 182 186 192 203 215 228 238 247 256 259 264 268 270 274 275 273 273 271 270 272 273 274 275 276 278 279 279 280
299 290 283 278 273 267 261 256 252 247 239 230 226 226 218 200 190 188 184 180 181 181 181 182 181 180 177 176 175 172 171 175 178 179 177 179 185 193 206 221 225 229 248 263 258 258 261 260 261 266 270 273 273 271 269 268 270 271 272 273 274 276 277
297 290 284 278 274 270 266 262 257 251 246 240 232 224 205 183 176 182 183 180 179 178 179 183 185 182 176 172 170 167 167 172 177 179 180 184 196 211 227 240 239 247 273 290 282 279 285 277 265 261 263 264 266 270 271 270 268 268 269 271 271 272 272
296 290 285 280 274 267 263 261 258 255 250 242 224 197 183 181 185 192 194 187 181 176 179 186 189 187 183 178 167 160 165 173 178 185 187 195 215 231 245 259 259 261 274 283 284 289 292 288 281 275 271 265 260 259 262 265 267 267 267 268 269 269 269
302 295 285 279 273 265 260 256 253 253 247 232 212 194 193 198 197 194 192 186 173 167 177 186 188 188 189 186 172 163 170 177 182 191 195 205 231 248 256 265 267 268 268 268 277 288 288 287 287 285 282 276 268 261 255 254 257 261 264 267 268 266 265
302 296 287 281 271 261 257 253 245 241 237 231 224 215 205 200 195 187 181 174 168 171 183 187 188 192 195 193 179 170 177 184 189 202 208 216 238 251 258 264 267 270 271 271 276 280 282 289 294 292 288 282 275 270 263 256 253 253 256 261 266 265 264
297 293 288 280 270 256 250 251 247 240 232 228 229 223 206 193 187 179 175 175 175 182 191 191 191 195 192 183 175 169 177 190 200 216 223 231 245 252 257 262 267 273 275 275 277 277 281 291 295 294 291 284 277 274 272 267 260 254 251 252 256 260 262
297 293 287 279 270 259 248 244 247 244 234 224 221 217 202 188 180 175 175 176 171 174 186 188 188 188 182 176 172 167 176 195 215 232 235 241 250 256 261 263 266 274 277 278 279 278 281 289 294 292 289 284 280 276 271 266 262 256 252 249 251 257 261
300 293 287 279 267 258 247 239 238 238 234 225 215 205 192 184 180 173 165 158 151 160 179 186 185 183 180 178 172 169 193 216 230 240 244 249 257 261 265 265 267 274 279 283 285 283 283 288 292 291 288 285 282 278 273 270 265 260 257 256 257 260 261
302 292 284 274 263 253 245 239 234 230 230 225 213 198 182 178 176 165 152 147 144 152 171 180 183 183 183 185 178 180 219 239 246 251 257 262 267 269 268 266 268 275 282 286 288 286 287 290 292 292 291 288 286 282 278 276 273 270 267 265 265 265 263
301 291 282 272 262 250 242 238 234 228 227 226 216 196 175 168 165 158 156 155 146 143 160 171 177 184 189 191 183 199 244 260 264 267 271 272 274 276 274 271 270 274 278 282 284 284 287 291 292 293 294 292 289 286 283 282 281 279 277 275 273 272 269
296 288 279 270 260 250 242 239 236 229 225 224 215 197 175 160 154 152 156 154 143 137 146 155 163 177 193 201 200 229 261 274 275 277 280 282 282 281 280 280 281 281 281 282 283 284 285 285 284 288 294 293 288 285 284 283 282 280 279 276 275 273 272
290 281 274 267 259 251 244 241 238 231 225 220 211 194 171 154 150 149 147 144 140 136 135 138 147 162 184 212 227 245 265 277 281 284 286 287 287 286 284 285 288 290 290 289 286 286 287 285 281 283 288 287 281 281 283 282 281 281 280 276 274 273 271
285 278 270 263 258 251 244 239 237 229 220 209 194 177 159 151 147 141 136 141 148 145 133 128 130 140 169 219 248 261 269 275 281 287 290 289 288 289 289 290 291 293 296 297 294 293 292 289 285 283 282 278 275 276 280 281 280 280 278 275 273 272 270
280 273 265 259 256 252 243 236 232 223 208 187 169 157 148 146 144 140 140 145 149 139 128 125 131 146 194 237 256 262 262 263 271 281 289 289 289 290 290 292 292 291 291 293 294 293 291 288 286 284 280 277 275 275 277 278 278 276 274 271 270 268 267
276 269 259 251 249 247 239 228 221 212 193 168 153 144 139 140 140 140 143 145 141 130 121 120 130 142 216 254 268 270 268 272 280 287 289 288 290 292 292 294 293 289 288 291 293 293 292 290 289 285 281 280 279 279 278 277 274 272 269 267 266 265 263
273 265 255 248 246 241 222 198 183 172 157 143 135 131 132 136 136 137 143 146 144 133 120 116 116 334 304 282 282 285 289 298 301 301 297 293 291 292 292 292 291 290 292 295 297 297 297 294 291 288 285 285 284 282 279 275 270 267 265 262 261 259 257
Height
816 818 821 822 823 824 825 825 826 827 827 828 829 829 830 830 830 831 831 831 831 831 831 831 831 831 831 832 832 832 832 832 832 832 833 834 834 833 833 833 834 834 834 835 835 836 837 837 836 835 835 834 833 832 831 830 829 830 830 829 829 828 827
816 818 820 821 823 824 825 826 826 827 828 828 829 829 830 831 831 832 832 832 832 832 832 832 832 832 832 832 832 832 833 833 833 834 834 834 834 834 834 833 833 833 834 834 835 836 836 837 837 835 835 834 833 832 831 830 830 829 829 829 828 827 826
816 817 819 821 822 823 825 826 827 828 828 829 829 830 830 831 831 832 832 832 833 833 833 833 833 833 833 833 833 833 833 834 834 834 835 835 835 835 834 834 833 833 833 833 835 836 836 836 835 834 834 833 832 831 830 829 828 828 828 827 826 825 825
815 817 818 819 821 823 824 825 826 827 828 829 830 830 831 831 832 832 832 833 833 833 834 834 834 834 834 834 834 834 835 835 835 835 835 836 836 835 835 835 834 834 835 835 835 837 836 836 835 834 833 832 830 829 828 827 827 827 826 825 824 824 823
813 815 817 818 820 821 823 824 826 827 828 829 830 830 831 831 832 832 833 833 833 834 834 834 834 834 835 835 835 836 836 836 836 837 837 836 836 836 835 835 835 835 835 836 836 837 837 837 836 834 832 831 829 827 826 826 825 824 823 822 821 820 820
812 814 816 817 819 820 822 823 825 826 827 828 829 830 831 831 832 832 833 833 834 834 834 834 835 835 835 836 836 836 837 837 837 837 837 837 837 837 836 836 836 836 836 836 837 837 837 837 836 834 832 831 830 828 826 824 822 821 819 818 817 817 817
811 813 814 816 818 819 820 822 824 825 826 827 828 829 830 831 832 832 833 834 834 834 835 835 835 835 836 836 836 837 837 837 838 838 838 838 837 837 837 837 837 837 837 836 837 836 836 836 835 834 832 831 830 828 825 822 820 818 816 815 815 815 816
810 811 813 814 816 817 819 821 822 823 824 826 827 828 829 830 831 832 833 834 834 835 835 835 836 836 836 837 837 837 837 838 838 839 839 838 838 838 838 838 837 837 837 837 836 836 836 835 834 834 833 831 829 827 825 823 820 817 815 815 814 814 815
809 810 811 812 814 816 817 819 821 822 823 824 826 827 828 829 830 831 833 833 834 835 835 836 836 837 837 837 838 838 838 839 839 839 840 840 840 839 839 839 838 838 838 837 836 836 835 835 834 834 833 832 830 827 824 823 821 818 816 815 814 814 814
807 808 809 810 811 813 815 817 818 820 821 822 824 825 827 828 829 830 832 832 833 834 835 836 836 836 837 837 838 838 838 839 839 840 840 840 840 840 840 840 839 839 838 837 837 836 835 834 834 833 832 832 831 828 825 823 821 819 818 817 815 814 814
804 806 807 808 809 811 812 814 816 817 819 820 822 824 825 827 828 829 831 831 832 833 834 835 835 836 836 837 837 838 838 838 839 839 840 840 841 841 840 840 840 839 838 838 837 836 835 834 833 833 832 831 830 829 826 824 821 819 819 818 817 815 814
802 804 805 806 807 808 809 811 813 815 817 818 820 822 823 825 827 828 829 830 831 832 833 834 835 835 836 836 837 837 837 838 839 839 840 840 840 840 840 840 840 839 838 838 837 836 835 834 833 832 831 830 829 828 827 825 822 819 818 818 817 817 816
801 802 803 805 805 806 807 809 811 813 815 816 817 819 821 823 824 826 827 828 829 831 832 833 834 834 835 835 836 836 836 837 838 838 839 839 839 839 839 839 839 839 838 837 836 836 835 834 833 832 831 830 829 828 827 825 822 819 818 818 817 816 816
799 800 801 802 803 805 806 807 808 810 812 814 815 817 819 820 822 823 825 826 827 828 830 831 832 833 834 834 835 835 835 836 836 837 837 837 838 838 838 838 838 838 837 837 836 835 834 833 832 831 830 829 828 827 826 824 822 819 818 818 817 815 815
798 798 799 800 801 803 804 805 806 808 809 812 813 815 816 818 820 821 822 823 825 826 827 828 830 831 832 832 833 833 834 834 835 835 836 836 836 837 837 837 836 836 836 836 835 834 833 833 832 830 830 829 828 827 826 824 822 820 818 817 816 815 814
797 798 798 798 799 800 802 803 804 805 807 809 810 812 814 815 817 819 820 821 822 823 825 826 827 828 829 830 831 831 832 833 833 833 834 835 835 835 835 835 835 835 834 834 834 833 833 832 831 830 829 829 828 827 826 825 823 821 818 816 815 814 812
796 797 797 798 798 799 800 801 802 803 805 806 807 809 811 812 814 816 817 819 820 821 822 823 825 826 827 828 828 829 830 831 831 832 832 833 833 833 834 833 833 833 833 833 832 832 831 831 830 829 829 828 827 826 825 824 823 821 818 816 814 812 811
794 796 797 798 799 799 800 800 801 801 803 804 804 806 807 808 810 812 814 815 817 818 819 820 822 823 824 825 826 827 828 829 829 830 830 831 832 832 832 832 832 832 832 831 831 831 830 830 830 829 828 827 826 825 824 823 821 820 818 815 813 811 810
793 795 796 797 797 798 798 798 799 798 799 800 801 802 803 804 805 807 810 812 814 816 817 818 819 821 822 823 824 825 826 827 827 828 828 829 830 830 831 831 831 831 830 830 830 830 829 829 829 828 827 826 825 824 823 822 820 818 816 814 812 810 808
793 794 794 795 795 795 795 796 796 796 796 797 798 798 799 801 802 804 807 809 812 813 814 815 817 818 819 820 821 822 823 824 825 825 826 826 827 828 829 829 829 829 829 829 829 828 828 828 827 827 826 825 824 823 822 820 819 817 815 812 810 809 806
793 793 793 793 792 792 793 793 794 794 794 795 796 796 797 799 801 802 802 805 808 810 811 813 813 815 817 818 819 819 820 822 823 823 824 824 825 826 826 827 828 828 828 828 827 827 827 826 826 825 825 824 823 822 821 819 817 815 813 810 808 807 805
791 792 791 791 791 790 790 791 791 792 792 792 792 793 795 796 798 799 799 800 804 806 808 810 810 812 814 815 816 817 819 820 821 822 822 823 824 825 825 826 826 826 826 826 826 825 825 825 824 823 823 822 822 821 819 818 816 814 811 809 806 805 803
790 790 789 789 789 789 789 789 789 789 790 789 790 791 792 793 794 797 800 799 800 802 804 806 808 809 811 813 814 815 817 818 820 820 821 822 822 823 824 824 824 824 824 823 823 823 823 822 822 821 821 820 820 819 818 816 814 812 810 807 805 803 801
788 788 787 787 787 787 787 788 787 787 787 788 788 789 789 790 791 795 799 799 798 799 801 803 805 807 809 811 813 814 815 817 819 819 819 820 821 822 822 823 823 822 821 821 821 820 820 819 819 818 818 817 817 817 816 815 813 811 809 806 804 802 799
786 785 785 785 785 786 786 786 786 786 786 787 788 787 787 788 789 792 796 798 798 799 801 802 804 807 809 810 811 812 814 816 817 818 818 818 819 820 820 821 821 820 820 819 819 818 817 816 815 815 814 814 813 813 812 812 811 810 808 805 803 801 798
784 784 784 783 783 784 784 784 783 784 785 786 787 786 786 787 788 789 791 793 795 797 800 802 804 807 808 809 810 812 814 815 815 816 816 816 817 818 818 819 818 818 818 817 816 816 815 815 813 812 811 810 809 808 807 807 807 807 806 804 802 799 797
783 782 782 781 781 781 781 781 781 781 782 783 784 784 784 785 787 788 789 791 793 795 798 800 803 806 807 808 809 811 813 814 814 815 815 815 816 816 816 817 816 816 816 815 814 814 813 813 811 810 809 807 805 804 803 803 802 802 802 802 800 797 796
781 780 779 779 778 777 777 778 779 779 780 780 781 782 783 784 785 786 788 791 793 795 797 800 803 805 806 807 809 810 812 812 813 814 814 814 814 814 814 814 814 813 813 812 812 811 811 810 809 807 806 804 802 801 800 799 799 798 798 797 795 794 794
779 778 777 776 775 775 775 775 776 777 778 778 779 779 781 782 784 786 788 791 793 795 798 801 803 804 805 807 808 809 810 811 812 812 812 812 812 812 812 812 811 811 810 810 809 808 808 807 806 804 802 800 799 798 796 796 795 794 793 792 791 790 789
776 775 774 774 773 773 773 773 774 775 776 777 777 777 778 781 784 786 788 791 793 796 799 801 803 803 804 805 806 807 809 810 810 810 810 810 810 810 810 809 809 809 808 807 807 806 805 804 803 801 799 797 796 794 793 792 791 789 789 788 787 786 785
774 773 772 771 771 771 771 772 772 773 774 775 775 776 777 780 783 785 787 789 793 796 798 800 801 802 803 804 805 806 808 808 808 808 808 808 808 807 807 806 806 806 805 804 804 803 803 802 801 799 797 794 793 791 789 789 787 786 785 784 783 782 781
772 771 770 769 769 769 770 770 771 771 772 773 773 775 777 779 781 784 786 789 791 793 795 797 799 801 802 803 803 805 807 806 806 806 806 806 805 805 804 803 802 802 801 801 801 800 799 799 798 797 795 793 790 788 787 786 785 783 782 781 780 779 777
770 769 768 767 767 768 768 769 769 770 770 770 771 774 776 778 781 784 787 789 791 792 793 796 798 800 801 802 803 804 805 805 805 804 804 803 803 802 801 801 800 799 797 797 797 796 796 795 794 794 793 791 788 786 785 784 782 781 780 778 777 776 774
768 767 767 766 766 766 767 768 768 769 769 770 771 774 775 777 781 784 787 790 792 793 794 796 798 799 800 801 801 802 803 803 803 803 803 802 801 800 798 798 798 797 795 794 794 793 792 791 791 790 790 788 785 784 784 782 780 779 777 775 774 772 771
766 765 765 765 765 765 765 766 767 768 770 770 771 773 775 777 781 784 787 790 793 794 794 796 798 799 799 799 799 800 801 802 802 801 801 800 799 798 796 796 796 794 792 791 791 789 788 788 787 785 784 783 782 781 781 779 777 776 774 772 770 769 767
764 763 763 763 763 763 764 765 766 767 769 770 771 772 775 778 782 785 787 791 793 794 794 795 796 797 798 798 798 798 799 800 799 800 799 798 797 796 794 794 793 790 788 788 787 786 785 784 782 781 779 778 777 777 777 775 773 771 769 768 766 764 763
761 761 760 761 761 761 762 764 765 766 767 769 772 774 777 779 782 786 789 791 792 792 793 794 795 796 797 797 797 798 798 797 797 797 796 796 795 794 792 791 789 787 786 785 784 782 781 779 778 776 775 774 773 773 772 770 768 766 764 763 761 760 758